Location: Altdorf
(51.0547°N, 12.6831°E)
Time: 13:43:22
(UTC+00:00)

Daily predictions for brighter satellites

Satellite Brightness Start Highest point End
(mag) Time Altitude Azimuth Time Altitude Azimuth Time Altitude Azimuth
Cosmos 1455 2.7 20:07:24 10° NNW 20:11:13 62° W 20:15:01 10° S
Cosmos 1825 Rocket 3.6 20:12:47 10° S 20:17:10 66° E 20:21:38 10° NNE
ATLAS CENTAUR R/B 1.5 20:14:43 10° NW 20:18:24 56° NE 20:22:00 10° ESE
Cosmos 1703 3.2 20:17:52 10° S 20:21:44 80° E 20:25:39 10° NNE
COSMOS 2428 3.5 20:17:57 10° SSE 20:22:53 32° ESE 20:27:51 10° NE
Cosmos 1844 3.9 20:17:37 10° NNW 20:23:24 73° WSW 20:29:06 10° SSE
Cosmos 2322 3.9 20:21:07 10° S 20:26:39 53° ESE 20:32:13 10° NE
Meteor 1-27 4.5 20:24:18 10° N 20:30:00 61° ENE 20:35:43 10° SSE
CZ-4B DEB 4.4 20:28:33 10° SSE 20:31:53 86° WSW 20:35:17 10° NNW
Cosmos 783 Rocket 4.5 20:27:33 10° SSW 20:32:47 82° ESE 20:38:02 10° NNE
Cosmos 1709 Rocket 4.1 20:27:05 10° S 20:33:22 78° E 20:39:46 10° NNE
NOSS 3-3 (A) 4.4 20:29:48 10° S 20:35:11 39° ESE 20:41:11 10° NE
NOSS 3-3 (C) 4.4 20:29:55 10° S 20:35:17 38° ESE 20:41:18 10° NE
Terra 2.1 20:31:40 10° SSE 20:36:20 59° ENE 20:41:03 10° N
Atlas Centaur 2 4.3 20:34:22 10° SSW 20:36:21 11° S 20:38:24 10° SSE
Cosmos 2237 Rocket 3.8 20:33:12 10° SE 20:36:50 18° E 20:40:30 10° ENE
CARTOSAT-1 3.6 20:33:10 10° SSE 20:37:29 88° E 20:41:50 10° NNW
Cosmos 2333 4.3 20:32:52 10° SSW 20:38:25 62° ESE 20:44:04 10° NE
Cosmos 2219 Rocket 2.5 20:33:34 10° S 20:38:51 45° ESE 20:44:10 10° NE
Cosmos 2360 Rocket 2.5 20:35:06 10° SW 20:40:45 76° WNW 20:46:27 10° NNE
IGS 5A 4.4 20:36:46 10° S 20:40:46 45° W 20:44:48 10° NNW
Cosmos 1538 Rocket 4.4 20:36:37 10° S 20:41:41 46° ESE 20:46:46 10° NE
Cosmos 2333 Rocket 2.3 20:43:03 10° S 20:48:36 57° ESE 20:54:13 10° NE
Cosmos 1315 Rocket 2.9 20:46:27 10° N 20:50:33 80° ENE 20:54:13 13° SSE
ATLAS 2AS CENTAUR R/B 3.4 20:43:36 10° NW 20:51:16 58° NE 20:58:17 10° ESE
Resurs 01 Rocket 4.1 20:49:53 10° SW 20:52:56 18° W 20:56:00 10° NW
Cosmos-2242 4.2 20:49:50 10° NNW 20:53:54 40° W 20:57:58 10° SSW
Cosmos 1818 3.9 20:50:41 10° SW 20:56:07 73° NW 21:01:36 10° NE
Cosmos 773 Rocket 4.0 20:53:19 10° SSW 20:58:38 88° ESE 21:03:58 10° NNE
Cosmos 2221 2.8 20:54:40 10° N 20:59:01 58° ENE 21:02:29 15° SSE
SL-16 R/B 4.2 20:55:00 10° WSW 21:00:04 33° NW 21:05:11 10° NNE
ERS-1 Rocket 3.4 20:57:03 10° S 21:02:01 58° WSW 21:07:01 10° NNW
GEOS 3 Rocket 3.8 20:56:49 10° NE 21:02:15 88° NW 21:07:40 10° SW
USA 215 3.3 20:59:06 10° ENE 21:05:34 58° SE 21:11:59 10° SW
Cosmos 2278 Rocket 2.3 21:02:43 10° NNW 21:08:26 76° ENE 21:13:09 15° SE
Cosmos 1892 3.7 21:07:01 17° SE 21:09:19 31° E 21:12:43 10° NNE
ATLAS 5 CENTAUR R/B 2.1 21:08:33 10° WSW 21:12:46 63° NW 21:17:37 10° NE
Cosmos 1844 Rocket 4.2 21:08:11 10° NW 21:12:48 27° WSW 21:17:23 10° SSW
Gblst 52 Del rocket 4.5 21:09:30 10° WNW 21:15:05 58° SSW 21:20:33 14° SE
Cosmos 1943 Rocket 4.2 21:11:39 10° NNW 21:16:02 22° NE 21:20:23 10° E
SPOT 5 3.7 21:13:56 10° S 21:18:47 47° W 21:23:25 10° NNW
SL-16 R/B 4.0 21:18:56 12° ESE 21:21:14 15° E 21:24:17 10° ENE
Lacrosse 5 rocket 3.0 21:17:27 10° WNW 21:21:19 35° N 21:24:59 10° ENE
Cosmos 2056 Rocket 4.3 21:18:00 10° NNW 21:23:13 45° ENE 21:27:39 14° SE
Spot 4 4.5 21:20:00 16° SE 21:23:34 45° ENE 21:28:08 10° N
Nadezhda 3 Rocket 4.2 21:17:54 10° N 21:24:14 63° ENE 21:29:11 17° SSE
Cosmos 2058 3.2 21:25:00 19° SSE 21:27:46 51° E 21:31:48 10° NNE
BREEZE M DEB (TANK) 4.2 21:27:33 10° SW 21:27:39 10° SW 21:27:39 10° SW
Cosmos 2154 Rocket 4.3 21:23:03 16° SSE 21:27:53 53° E 21:33:54 10° NNE
Cosmos 1408 3.5 21:29:05 21° SE 21:30:47 32° E 21:34:01 10° NNE
Meteor 2-17 Rocket 4.4 21:27:26 14° S 21:32:38 72° E 21:38:40 10° NNE
In-Cosmos 22 Rocket 4.1 21:29:55 16° S 21:34:10 67° E 21:39:29 10° NNE
TSX-5 3.7 21:31:45 10° NW 21:35:09 67° WSW 21:37:36 22° SSE
Cosmos 2074 Rocket 4.0 21:29:15 12° S 21:35:10 89° E 21:41:26 10° N
Cosmos 1076 Rocket 3.6 21:36:08 20° S 21:38:58 60° E 21:43:12 10° NNE
Cosmos 1680 Rocket 3.9 21:35:41 18° S 21:39:28 49° ESE 21:44:36 10° NNE
USA 267 3.3 21:34:04 15° SE 21:39:39 67° SW 21:46:12 10° WNW
CZ-4C R/B 4.1 21:38:30 10° NW 21:44:32 37° NNE 21:51:35 10° E
Cosmos 1842 Rocket 4.4 21:41:35 10° NNW 21:45:44 43° W 21:49:02 15° SSW
JB-3 4.4 21:43:05 10° N 21:46:57 73° WNW 21:49:57 16° SSW
COSMOS 2455 4.0 21:42:47 10° NNW 21:48:26 39° NE 21:54:03 10° ESE
EO 1 Delta rocket 4.5 21:43:52 10° NNE 21:48:47 54° E 21:52:50 20° SSE
Cosmos 2151 3.8 21:47:18 22° SE 21:49:28 36° E 21:53:23 10° NNE
MTI 4.4 21:47:55 10° N 21:50:56 51° WNW 21:53:10 16° SW
ATLAS CENTAUR R/B 3.0 21:54:18 10° WNW 21:56:56 19° WSW 21:58:26 15° SSW
Cosmos 923 Rocket 4.0 21:52:20 14° SSW 21:56:57 83° ESE 22:02:17 10° NNE
Cosmos 2327 Rocket 4.5 21:52:14 16° S 21:57:22 90° E 22:03:31 10° N
Cosmos 1825 2.6 21:58:08 27° SSE 21:59:52 48° E 22:03:33 10° NNE
Cosmos 2369 Rocket 3.8 21:55:50 10° NNW 22:00:39 28° NE 22:05:26 10° ESE
Cosmos 1151 Rocket 4.0 21:56:39 10° N 22:00:42 36° ENE 22:03:13 19° SE
ALOS 2 3.2 21:58:03 21° SE 22:00:45 49° ENE 22:05:01 10° N
Cosmos 1980 3.7 21:56:55 14° SSW 22:01:50 73° ESE 22:07:29 10° NNE
Cosmos 967 Rocket 4.5 21:57:42 10° SW 22:04:12 84° SE 22:10:41 10° NE
Cosmos 44 4.2 22:05:15 23° SE 22:06:17 25° ESE 22:09:53 10° ENE
COSMOS 2428 3.5 22:01:22 10° SW 22:06:55 54° NW 22:12:31 10° NNE
Cosmos 371 Rocket 4.0 22:03:37 10° NNW 22:08:20 47° ENE 22:11:47 17° SE
GP-B 3.8 22:04:51 10° NNE 22:09:06 42° E 22:11:23 23° SE
Cosmos 1295 Rocket 4.4 22:06:31 19° S 22:11:03 84° E 22:17:12 10° N
Cosmos 1624 Rocket 4.0 22:08:31 10° NNW 22:13:47 80° WSW 22:16:57 24° SSE
NOSS 0 Rocket 4.0 22:08:07 10° SSW 22:14:16 84° WNW 22:20:30 10° NNE
NOSS 3-4 (A) 4.0 22:07:37 10° NW 22:14:26 64° SW 22:19:46 21° SSE
Terra 3.7 22:10:53 10° SW 22:14:28 21° W 22:18:05 10° NW
NOSS 3-4 (C) 3.9 22:07:43 10° NW 22:14:33 65° SW 22:19:55 21° SSE
SL-4 R/B 2.2 22:19:54 22° ENE 22:19:59 22° ENE 22:21:42 10° NNE
Cosmos 2237 Rocket 2.2 22:14:58 13° SSW 22:20:07 90° WNW 22:25:53 10° NNE
Genesis I 3.2 22:18:36 25° SSW 22:20:44 62° SE 22:24:36 10° NE
CREW DRAGON DEMO-1 DEB 4.2 22:22:53 24° ESE 22:22:53 24° ESE 22:24:35 10° E
Cosmos 2344 3.6 22:16:02 12° SSW 22:22:50 62° SE 22:30:51 10° NE
Cosmos 2219 Rocket 3.5 22:17:40 10° WSW 22:22:53 39° NW 22:28:11 10° NNE
Elektron 1 4.5 22:21:21 15° SW 22:24:04 81° SE 22:30:13 10° NE
Cosmos 1346 Rocket 4.4 22:28:04 19° ESE 22:29:28 23° E 22:32:35 10° NE
Thor Agena Rocket 3.6 22:24:25 10° NNE 22:29:33 74° WNW 22:33:18 18° SSW
Cosmos 2333 Rocket 3.8 22:28:01 10° WSW 22:33:11 34° NW 22:38:25 10° NNE
RESURS DK-1 4.3 22:35:31 10° NNW 22:39:03 26° NE 22:42:34 10° ESE
Cosmos 1515 Rocket 4.0 22:36:40 10° N 22:40:56 52° ENE 22:43:15 25° SE
BREEZE-M DEB (TANK) 2.2 22:38:31 10° W 22:41:22 33° SW 22:41:22 33° SW
ATLAS 2AS CENTAUR R/B 3.2 22:35:00 10° NW 22:42:13 50° WSW 22:46:25 23° S
EO 1 Del DPAF 3.9 22:39:02 10° N 22:42:42 49° WNW 22:44:59 20° SW
Cosmos 1766 Rocket 3.5 22:44:24 29° S 22:46:38 87° ESE 22:51:05 10° N
Cosmos 1328 Rocket 3.5 22:44:02 10° NNW 22:48:22 84° WSW 22:50:25 31° S
Aureole 2 Rocket 2.6 22:45:55 10° NW 22:48:37 40° WSW 22:48:59 38° SW
USA 215 3.6 22:42:12 10° ENE 22:48:44 70° NNW 22:55:14 10° WSW
Gbstr 26 Del rocket 4.0 22:49:28 23° SE 22:49:28 23° SE 22:52:22 10° E
Okean 3 Rocket 3.6 22:47:02 27° SSW 22:49:29 78° WNW 22:53:56 10° N
Cosmos 1606 3.0 22:46:52 10° NNW 22:50:42 60° W 22:52:19 31° SSW
Cosmos 2278 Rocket 3.8 22:47:43 10° NW 22:51:56 22° W 22:54:59 14° SW
Cosmos 2297 3.9 22:48:16 10° NW 22:53:57 63° WSW 22:57:11 26° S
Cosmos 304 Rocket 4.2 22:50:02 10° NNW 22:54:50 59° ENE 22:58:04 20° SE
Cosmos 2218 Rocket 4.0 22:50:54 24° S 22:54:59 81° E 23:01:19 10° NNE
Cosmos 2228 Rocket 4.0 22:52:10 10° N 22:56:36 44° ENE 22:59:19 21° SE
Cosmos 1420 Rocket 4.1 22:52:29 10° NNW 22:57:44 66° WSW 23:00:36 27° S
ATLAS 5 CENTAUR R/B 4.3 22:54:38 10° WNW 22:58:22 24° NNW 23:02:34 10° NE
Cosmos 2366 rocket 4.0 22:56:35 24° S 23:00:40 85° E 23:07:04 10° N
Cosmos 1943 Rocket 2.2 22:54:58 10° NNW 23:00:42 80° ENE 23:04:40 20° SE
Lacrosse 5 rocket 1.8 22:57:01 10° WNW 23:01:02 57° NNE 23:04:48 10° ESE
Cosmos 1633 3.2 23:01:11 31° SE 23:02:23 44° E 23:05:52 10° NNE
Landsat 4 4.4 22:59:02 10° NNE 23:02:39 42° E 23:03:59 30° SSE
SL-16 R/B 2.2 23:00:47 23° SSW 23:04:26 79° ESE 23:10:09 10° NNE
Cosmos 1959 Rocket 4.5 23:06:20 24° SSW 23:10:17 83° W 23:16:33 10° N
YAOGAN 11 4.0 23:09:09 30° SSE 23:11:20 87° W 23:15:47 10° NNW
Cosmos 1743 Rocket 3.9 23:12:36 29° SSE 23:14:33 55° E 23:18:49 10° NNE
Cosmos 332 Rocket 3.9 23:14:22 10° NNW 23:19:07 63° WSW 23:21:28 29° S
Cosmos 1048 Rocket 4.4 23:19:32 26° S 23:22:15 52° ESE 23:27:22 10° NNE
USA 267 4.5 23:21:24 19° SSW 23:23:30 23° SW 23:28:30 10° WNW
Meteor 2-3 Rocket 3.8 23:21:02 25° SSW 23:24:30 80° WNW 23:30:15 10° N
Helios 1A 3.4 23:24:53 30° SSW 23:26:37 49° W 23:30:41 10° NNW
Cosmos 405 2.9 23:24:23 10° NNW 23:27:56 72° W 23:29:08 39° S
Meteor 1-10 Rocket 4.5 23:26:22 10° N 23:31:57 64° ENE 23:35:50 20° SSE
Cosmos 1452 Rocket 3.9 23:27:22 10° NNW 23:32:29 51° WSW 23:35:07 27° SSW
CZ-4C R/B 3.0 23:27:01 10° NW 23:34:01 83° NE 23:42:12 10° SE
Meteor 2-6 Rocket 4.2 23:28:53 10° N 23:34:25 78° ENE 23:37:54 23° SSE
PSLV R/B 3.7 23:30:24 10° NNE 23:34:36 62° ESE 23:36:34 30° S
Cosmos 389 Rocket 4.4 23:31:38 10° N 23:34:36 25° ENE 23:37:05 13° ESE
COSMOS 2455 3.0 23:28:45 10° NW 23:34:42 60° WSW 23:38:24 23° SSE
Cosmos 1340 3.4 23:34:23 25° SW 23:36:11 44° WNW 23:39:48 10° N
Cosmos 1110 Rocket 4.1 23:31:12 10° NNW 23:36:31 81° ENE 23:40:16 20° SSE
ALOS 2 4.3 23:35:27 17° SW 23:37:21 22° W 23:40:47 10° NW
Cosmos 1151 Rocket 4.4 23:34:27 10° NNW 23:38:07 27° W 23:40:03 19° SW
Cosmos 1408 Rocket 4.2 23:35:56 24° SW 23:38:19 49° WNW 23:42:37 10° N
SL-16 R/B 3.8 23:33:01 10° SE 23:38:41 38° ENE 23:44:23 10° N
Cosmos 1603 4.2 23:36:25 24° S 23:39:28 46° ESE 23:44:54 10° NE
Cosmos 1727 Rocket 4.4 23:38:12 10° NNW 23:44:14 54° W 23:48:04 23° SSW
APEX 4.1 23:42:33 10° WNW 23:44:22 21° W 23:44:22 21° W
Resurs 1-4 Rocket 3.9 23:40:50 10° NE 23:44:52 21° E 23:48:44 10° SE
Cosmos 2369 Rocket 2.2 23:39:36 10° NNW 23:45:11 71° WSW 23:48:49 22° SSE
Cosmos 1500 Rocket 3.6 23:44:49 29° SSW 23:47:03 77° W 23:51:28 10° N
Cosmos 44 3.6 23:43:38 15° WSW 23:47:10 55° NW 23:51:36 10° NE
SeaSat 1 3.9 23:44:49 10° NE 23:48:51 24° ESE 23:51:20 17° SSE
ISS -1.6 23:51:01 15° SE 23:51:01 15° SE 23:52:23 10° E
Helios 1B rocket 2.4 23:49:14 10° NNE 23:53:24 79° ESE 23:55:23 30° S
